Regional Weather Roundup
Issued by NWS

Home | Current Version | Previous Version | Text Only | Print | Product List | Glossary Off
Versions: 1 2 3 4 5 6 7 8 9 10 11 12 13 14 15 16 17 18 19 20 21 22 23 24 25 26 27 28 29 30 31 32 33 34 35 36 37 38 39 40 41 42 43 44 45 46 47 48 49 50

000
ASUS45 KABQ 020210
RWRNM
WEATHER ROUNDUP FOR NEW MEXICO
NATIONAL WEATHER SERVICE ALBUQUERQUE NM
800 PM MDT WED OCT 01 2014

NOTE: "FAIR" MEANS FEW OR NO CLOUDS BELOW 12,000 FEET AGL WITH NO
       SIGNIFICANT WEATHER OR OBSTRUCTIONS TO VISION.

      THIS PRODUCT IS RELEASED AS TWO VERSIONS.  ONE VERSION NEAR
      THE TOP OF THE HOUR CONTAINING PRELIMINARY DATA FROM ALBUQUERQUE
      AND OTHER STATIONS.  A FINAL VERSION WITH ADDITIONAL DATA IS
      ISSUED ABOUT 10 MINUTES AFTER THE HOUR.

NMZ501-503-504-510>518-020300-
NORTHWEST PLATEAU/NORTHCENTRAL MOUNTAINS

CITY           SKY/WX    TMP DP  RH WIND       PRES   REMARKS
FARMINGTON     PTCLDY    60  35  39 N10       29.98R
LOS ALAMOS     PTCLDY    58  28  31 W5        30.03R
SANTA FE       PTCLDY    58  27  30 N6        29.96R
TAOS           MOCLDY    54  25  32 N9        30.03R
ANGEL FIRE     FAIR      50  20  31 W10       30.07R

$$
NMZ402-403-502-505>509-020300-
WESTCENTRAL MOUNTAINS/SOUTHWEST MOUNTAINS

CITY           SKY/WX    TMP DP  RH WIND       PRES   REMARKS
GALLUP         PTCLDY    60  32  34 N5        30.04R
GRANTS         PTCLDY    55  30  38 W6        30.04S
SILVER CITY    CLEAR     61  36  39 NW7       30.01S

$$
NMZ407-409-411-412-020300-
SOUTHERN DESERTS

CITY           SKY/WX    TMP DP  RH WIND       PRES   REMARKS
LORDSBURG      FAIR      70  32  24 MISG      29.93R
DEMING         CLEAR     69  34  27 W3        29.92R
LAS CRUCES     CLEAR     73  28  18 W12       29.93R
HOLLOMAN AFB   CLEAR     73  32  22 S9        29.88R
ALAMOGORDO     CLEAR     64  37  36 S8        29.90R
T OR C         CLEAR     73  33  23 W13       29.89R

$$
NMZ519>523-020300-
CENTRAL VALLEYS/CENTRAL HIGHLANDS

CITY           SKY/WX    TMP DP  RH WIND       PRES   REMARKS
ALBUQUERQUE    MOCLDY    72  29  20 NW13      29.92R
DOUBLE EAGLE   PTCLDY    66  30  26 W9        29.96R
MORIARTY ARPT  FAIR      56  32  39 SW6       29.98R
CLINES CORNERS PTCLDY    56  29  35 SW10      30.00R
BELEN          FAIR     N/A N/A N/A W6        29.93R
SOCORRO        FAIR      68  36  29 W8        29.90R

$$
NMZ524>526-539-540-020300-
SOUTHCENTRAL MOUNTAINS

CITY           SKY/WX    TMP DP  RH WIND       PRES   REMARKS
RUIDOSO        NOT AVBL

$$
NMZ527>531-020300-
NORTHEAST HIGHLANDS/NORTHEAST PLAINS

CITY           SKY/WX    TMP DP  RH WIND       PRES   REMARKS
LAS VEGAS      CLOUDY    58  31  35 SW7       29.98R
RATON          MOCLDY    61  30  31 NW20      29.92R
CLAYTON        CLEAR     59  40  49 S10       29.83S

$$
NMZ532>537-020300-
EASTCENTRAL PLAINS

CITY           SKY/WX    TMP DP  RH WIND       PRES   REMARKS
TUCUMCARI      CLEAR     66  42  41 SW9       29.81R
CANNON AFB     CLEAR     64  43  46 SW7       29.87R
CLOVIS AIRPORT   N/A     63  43  48 SW9       29.88R

$$
NMZ028-029-538-020300-
SOUTHEAST PLAINS

CITY           SKY/WX    TMP DP  RH WIND       PRES   REMARKS
ROSWELL        CLEAR     68  50  52 SW14      29.81R
CARLSBAD       CLEAR     71  46  40 SW7       29.81R
HOBBS          CLEAR     66  48  52 S10       29.85R


$$


USA.gov is the U.S. government's official web portal to all federal, state and local government web resources and services.